Weather History for EIME - August, 2014

Change the Weather History Date:

Saturday, August 23, 2014

  Actual Average (EIDW) Record (EIDW)
Temperature  
Mean Temperature 52 °F -  
Max Temperature 62 °F 62 °F 77 °F (2003)
Min Temperature 41 °F 48 °F 40 °F (2014)
Degree Days  
Heating Degree Days 14    
Growing Degree Days 2 (Base 50)    
Moisture  
Dew Point 44 °F    
Average Humidity 74    
Maximum Humidity 93    
Minimum Humidity 45    
Precipitation  
Precipitation 0.00 in - - ()
Sea Level Pressure  
Sea Level Pressure 30.04 in    
Wind  
Wind Speed 9 mph ()    
Max Wind Speed 13 mph    
Max Gust Speed -    
Visibility 10.8 miles    
Events      
Averages and records for this station are not official NWS values.
T = Trace of Precipitation, MM = Missing Value Source: Averaged Metar Reports

Daily Weather History Graph

Daily Weather History Graph

Search for Another Location

Airport or City:

Trip Planner

Search our weather history database for the weather conditions in past years. The results will help you decide how hot, cold, wet, or windy it might be!

Date:

Astronomy

Aug. 23, 2014 Rise Set
Actual Time 6:19 AM IST 8:36 PM IST
Civil Twilight 5:41 AM IST 9:14 PM IST
Nautical Twilight 4:53 AM IST 10:01 PM IST
Astronomical Twilight 3:55 AM IST 10:58 PM IST
Moon 4:16 AM IST (8/23) 7:15 PM IST (8/23)
Length of Visible Light 15h 32m
Length of Day
14h 16m
Waning Crescent, 4% of the Moon is Illuminated
Aug 23
Waning Crescent
Aug 25
New
Sep 2
First Quarter
Sep 9
Full
Sep 16
Last Quarter

Hourly Weather History & Observations

Time (IST) Temp. Windchill Dew Point Humidity Pressure Visibility Wind Dir Wind Speed Gust Speed Precip Events Conditions
12:00 AM 44 °F - 42 °F 88% 30.02 in 19 mi WSW 8.9 mph - -   Scattered Clouds
1:00 AM 44 °F - 42 °F 91% 30.02 in 19 mi West 8.9 mph - -   Partly Cloudy
1:00 AM 44.6 °F 39.7 °F 42.8 °F 93% 30.01 in 6.2 mi West 9.2 mph - N/A   Partly Cloudy
2:00 AM 44 °F - 42 °F 90% 30.02 in 19 mi West 8.9 mph - -   Scattered Clouds
2:00 AM 44.6 °F 39.7 °F 41.0 °F 87% 30.01 in 6.2 mi West 9.2 mph - N/A   Partly Cloudy
3:00 AM 44 °F - 42 °F 90% 30.02 in 19 mi SSW 8.9 mph - -  
4:00 AM 45 °F - 43 °F 91% 30.02 in 19 mi West 8.9 mph - -   Partly Cloudy
4:00 AM 44.6 °F 39.2 °F 42.8 °F 93% 30.01 in 6.2 mi West 10.4 mph - N/A   Scattered Clouds
5:00 AM 43 °F - 42 °F 93% 30.02 in 19 mi WSW 8.9 mph - -   Partly Cloudy
5:00 AM 42.8 °F 37.5 °F 41.0 °F 93% 30.01 in 6.2 mi WSW 9.2 mph - N/A   Scattered Clouds
6:00 AM 45 °F - 43 °F 92% 30.02 in 19 mi West 11.2 mph - -   Mostly Cloudy
6:00 AM 44.6 °F 39.7 °F 42.8 °F 93% 30.01 in 6.2 mi West 9.2 mph - N/A   Mostly Cloudy
7:00 AM 47 °F - 45 °F 91% 30.03 in 19 mi West 11.2 mph - -   Mostly Cloudy
7:00 AM 46.4 °F 41.1 °F 44.6 °F 93% 30.01 in 6.2 mi West 11.5 mph - N/A   Mostly Cloudy
8:00 AM 48 °F - 46 °F 91% 30.04 in 19 mi West 13.4 mph - -   Partly Cloudy
8:00 AM 48.2 °F - 46.4 °F 93% 30.04 in 6.2 mi West 12.7 mph - N/A   Scattered Clouds
9:00 AM 50 °F - 47 °F 85% 30.05 in 19 mi West 13.4 mph - -   Mostly Cloudy
9:00 AM 50.0 °F - 46.4 °F 87% 30.04 in 6.2 mi West 10.4 mph - N/A   Mostly Cloudy
10:00 AM 52 °F - 47 °F 76% 30.06 in 22 mi WNW 13.4 mph - -   Mostly Cloudy
10:00 AM 53.6 °F - 48.2 °F 82% 30.04 in 6.2 mi WNW 12.7 mph - N/A   Mostly Cloudy
11:00 AM 55 °F - 46 °F 63% 30.05 in 25 mi NW 8.9 mph - -   Mostly Cloudy
11:00 AM 55.4 °F - 48.2 °F 77% 30.04 in 6.2 mi NW 9.2 mph - N/A   Mostly Cloudy
12:00 PM 58 °F - 46 °F 55% 30.05 in 25 mi WNW 11.2 mph - -   Mostly Cloudy
1:00 PM 57 °F - 45 °F 55% 30.05 in 25 mi WNW 11.2 mph - -   Mostly Cloudy
1:00 PM 57.2 °F - 44.6 °F 63% 30.04 in 6.2 mi WNW 11.5 mph - N/A   Mostly Cloudy
2:00 PM 58 °F - 44 °F 50% 30.06 in 25 mi NW 11.2 mph - -   Mostly Cloudy
2:00 PM 60.8 °F - 46.4 °F 59% 30.04 in 6.2 mi NW 10.4 mph - N/A   Mostly Cloudy
3:00 PM 60 °F - 44 °F 45% 30.06 in 28 mi WNW 11.2 mph - -   Mostly Cloudy
3:00 PM 60.8 °F - 44.6 °F 55% 30.04 in 6.2 mi WNW 11.5 mph - N/A   Mostly Cloudy
4:00 PM 60 °F - 46 °F 48% 30.06 in 28 mi WNW 13.4 mph - -   Partly Cloudy
4:00 PM 60.8 °F - 44.6 °F 55% 30.04 in 6.2 mi NW 10.4 mph - N/A   Mostly Cloudy
5:00 PM 60 °F - 45 °F 46% 30.06 in 31 mi West 11.2 mph - -   Partly Cloudy
5:00 PM 60.8 °F - 44.6 °F 55% 30.04 in 6.2 mi West 11.5 mph - N/A   Scattered Clouds
6:00 PM 59 °F - 43 °F 45% 30.06 in 31 mi WNW 8.9 mph - -   Mostly Cloudy
6:00 PM 59.0 °F - 44.6 °F 59% 30.04 in 6.2 mi WNW 9.2 mph - N/A   Mostly Cloudy
7:00 PM 56 °F - 45 °F 56% 30.07 in 31 mi West 8.9 mph - -   Partly Cloudy
7:00 PM 57.2 °F - 44.6 °F 63% 30.06 in 6.2 mi West 8.1 mph - N/A   Mostly Cloudy
8:00 PM 58 °F - 44 °F 50% 30.07 in 31 mi West 4.5 mph - -   Scattered Clouds
8:00 PM 57.2 °F - 44.6 °F 63% 30.06 in 6.2 mi West 4.6 mph - N/A   Scattered Clouds
9:00 PM 51 °F - 44 °F 70% 30.09 in 25 mi West 4.5 mph - -   Mostly Cloudy
9:00 PM 50.0 °F - 44.6 °F 82% 30.06 in 6.2 mi West 3.5 mph - N/A   Mostly Cloudy
10:00 PM 50 °F - 44 °F 73% 30.09 in 19 mi SW 4.5 mph - -   Partly Cloudy
10:00 PM 50.0 °F - 44.6 °F 82% 30.06 in 6.2 mi SW 3.5 mph - N/A   Scattered Clouds
11:00 PM 45 °F - 41 °F 80% 30.11 in 12 mi WSW 4.5 mph - -   Scattered Clouds